DRU9982 UTAT-UTAM

Flight info

Callsign DRU9982
Flight time 0h 55m
Altitude 33000
Route TAK26D TAKIP B801 DUTAR SUV35A
Aircraft T154/M-SDGRWY/S

Departure

Time 2026-04-14 11:21
Airport Dashoguz International Airport (UTAT)

Arrival

Time 2026-04-14 12:17
Airport Mary International Airport (UTAM)
Time Latitude Longitude Altitude Speed Heading
2026-04-14 10:56 41.76405 59.83438 284 ft 0 kts
2026-04-14 11:10 41.76392 59.83439 284 ft 2 kts 357°
2026-04-14 11:10 41.76368 59.83441 284 ft 3 kts
2026-04-14 11:10 41.76345 59.83440 284 ft 1 kts
2026-04-14 11:10 41.76343 59.83440 284 ft 0 kts
2026-04-14 11:14 41.76346 59.83441 284 ft 1 kts
2026-04-14 11:15 41.76370 59.83443 284 ft 2 kts
2026-04-14 11:15 41.76378 59.83467 284 ft 4 kts 133°
2026-04-14 11:15 41.76346 59.83482 284 ft 4 kts 164°
2026-04-14 11:15 41.76318 59.83519 284 ft 7 kts 105°
2026-04-14 11:16 41.76295 59.83593 284 ft 9 kts 147°
2026-04-14 11:16 41.76234 59.83607 284 ft 8 kts 179°
2026-04-14 11:16 41.76181 59.83619 284 ft 7 kts 148°
2026-04-14 11:16 41.76158 59.83694 284 ft 11 kts 92°
2026-04-14 11:17 41.76156 59.83958 284 ft 19 kts 90°
2026-04-14 11:17 41.76156 59.84145 284 ft 20 kts 90°
2026-04-14 11:17 41.76156 59.84342 284 ft 21 kts 91°
2026-04-14 11:18 41.76157 59.84551 284 ft 23 kts 90°
2026-04-14 11:18 41.76156 59.84770 284 ft 23 kts 91°
2026-04-14 11:18 41.76155 59.84996 284 ft 24 kts 91°
2026-04-14 11:18 41.76155 59.85239 281 ft 27 kts 89°
2026-04-14 11:19 41.76154 59.85460 281 ft 19 kts 91°
2026-04-14 11:19 41.76152 59.85611 281 ft 15 kts 91°
2026-04-14 11:19 41.76100 59.85712 280 ft 13 kts 175°
2026-04-14 11:19 41.76013 59.85706 280 ft 10 kts 197°
2026-04-14 11:20 41.75981 59.85642 281 ft 8 kts 268°
2026-04-14 11:20 41.75980 59.85572 281 ft 7 kts 269°
2026-04-14 11:20 41.75978 59.85430 281 ft 27 kts 270°
2026-04-14 11:20 41.75980 59.84920 284 ft 84 kts 270°
2026-04-14 11:21 41.75983 59.83885 285 ft 135 kts 267°
2026-04-14 11:21 41.75985 59.82550 601 ft 147 kts 266°
2026-04-14 11:21 41.75987 59.81132 1012 ft 156 kts 267°
2026-04-14 11:21 41.75958 59.79622 1323 ft 171 kts 264°
2026-04-14 11:22 41.75670 59.78008 1448 ft 196 kts 236°
2026-04-14 11:22 41.74562 59.76851 1873 ft 218 kts 201°
2026-04-14 11:22 41.73072 59.76552 2718 ft 221 kts 191°
2026-04-14 11:22 41.71530 59.76363 3352 ft 230 kts 190°
2026-04-14 11:23 41.69890 59.76094 3951 ft 240 kts 192°
2026-04-14 11:23 41.68267 59.75761 4813 ft 239 kts 190°
2026-04-14 11:23 41.66606 59.75592 5461 ft 247 kts 177°
2026-04-14 11:23 41.64899 59.75797 6321 ft 246 kts 174°
2026-04-14 11:24 41.63231 59.76020 7141 ft 245 kts 173°
2026-04-14 11:24 41.61521 59.76261 7895 ft 247 kts 172°
2026-04-14 11:24 41.59848 59.76699 8579 ft 249 kts 153°
2026-04-14 11:24 41.58423 59.77916 9430 ft 245 kts 143°
2026-04-14 11:25 41.57030 59.79256 10176 ft 248 kts 146°
2026-04-14 11:25 41.55602 59.80487 10882 ft 250 kts 148°
2026-04-14 11:25 41.54125 59.81710 11616 ft 252 kts 149°
2026-04-14 11:25 41.52617 59.82953 12305 ft 256 kts 149°
2026-04-14 11:26 41.51117 59.84188 13037 ft 257 kts 150°
2026-04-14 11:26 41.49591 59.85443 13721 ft 260 kts 150°
2026-04-14 11:26 41.48049 59.86707 14430 ft 262 kts 150°
2026-04-14 11:26 41.46519 59.87964 15094 ft 264 kts 150°
2026-04-14 11:27 41.44940 59.89257 15725 ft 269 kts 150°
2026-04-14 11:27 41.43334 59.90572 16282 ft 276 kts 150°
2026-04-14 11:27 41.41672 59.91931 16685 ft 288 kts 150°
2026-04-14 11:27 41.39934 59.93351 17172 ft 296 kts 150°
2026-04-14 11:28 41.38160 59.94803 17609 ft 306 kts 150°
2026-04-14 11:28 41.36326 59.96300 18061 ft 315 kts 150°
2026-04-14 11:28 41.34452 59.97831 18575 ft 321 kts 151°
2026-04-14 11:28 41.32534 59.99396 19105 ft 327 kts 150°
2026-04-14 11:29 41.30584 60.00987 19621 ft 333 kts 150°
2026-04-14 11:29 41.28598 60.02605 20093 ft 340 kts 150°
2026-04-14 11:29 41.26553 60.04270 20514 ft 347 kts 150°
2026-04-14 11:29 41.24481 60.05954 20954 ft 353 kts 150°
2026-04-14 11:30 41.22378 60.07665 21469 ft 357 kts 150°
2026-04-14 11:30 41.20254 60.09391 21967 ft 361 kts 150°
2026-04-14 11:30 41.18104 60.11136 22467 ft 365 kts 150°
2026-04-14 11:30 41.15958 60.12878 23128 ft 364 kts 150°
2026-04-14 11:31 41.13806 60.14623 23613 ft 367 kts 150°
2026-04-14 11:31 41.11607 60.16404 24111 ft 371 kts 150°
2026-04-14 11:31 41.09405 60.18186 24610 ft 374 kts 150°
2026-04-14 11:31 41.07183 60.19980 25097 ft 378 kts 150°
2026-04-14 11:32 41.04916 60.21810 25692 ft 379 kts 151°
2026-04-14 11:32 41.02553 60.23326 26126 ft 381 kts 161°
2026-04-14 11:32 41.00037 60.24451 26716 ft 382 kts 163°
2026-04-14 11:32 40.97543 60.25571 27154 ft 386 kts 162°
2026-04-14 11:33 40.95003 60.26765 27669 ft 388 kts 162°
2026-04-14 11:33 40.92447 60.27977 28227 ft 390 kts 162°
2026-04-14 11:33 40.89883 60.29191 28640 ft 394 kts 162°
2026-04-14 11:34 40.84686 60.31635 29590 ft 400 kts 163°
2026-04-14 11:34 40.82066 60.32869 30037 ft 404 kts 163°
2026-04-14 11:34 40.79398 60.34128 30484 ft 407 kts 163°
2026-04-14 11:34 40.76754 60.35375 30848 ft 411 kts 164°
2026-04-14 11:35 40.74047 60.36651 31244 ft 415 kts 164°
2026-04-14 11:35 40.71328 60.37931 31595 ft 418 kts 165°
2026-04-14 11:35 40.68567 60.39229 31890 ft 424 kts 165°
2026-04-14 11:35 40.65764 60.40547 32284 ft 425 kts 165°
2026-04-14 11:36 40.63000 60.41846 32616 ft 428 kts 166°
2026-04-14 11:36 40.60182 60.43168 32892 ft 433 kts 166°
2026-04-14 11:36 40.57345 60.44499 33183 ft 437 kts 166°
2026-04-14 11:37 40.51605 60.47189 33322 ft 437 kts 166°
2026-04-14 11:37 40.45864 60.49873 33397 ft 440 kts 167°
2026-04-14 11:38 40.40028 60.52264 33378 ft 441 kts 166°
2026-04-14 11:38 40.34381 60.55465 33397 ft 445 kts 164°
2026-04-14 11:39 40.28643 60.58437 33373 ft 444 kts 165°
2026-04-14 11:39 40.22860 60.61354 33384 ft 445 kts 166°
2026-04-14 11:40 40.17123 60.64233 33380 ft 443 kts 166°
2026-04-14 11:40 40.11323 60.67152 33374 ft 445 kts 166°
2026-04-14 11:41 40.05539 60.70061 33374 ft 448 kts 167°
2026-04-14 11:41 39.99733 60.72959 33380 ft 447 kts 167°
2026-04-14 11:42 39.93913 60.75852 33383 ft 448 kts 167°
2026-04-14 11:42 39.88095 60.78739 33349 ft 452 kts 167°
2026-04-14 11:43 39.82245 60.81630 33353 ft 450 kts 167°
2026-04-14 11:43 39.76377 60.84528 33366 ft 454 kts 167°
2026-04-14 11:44 39.70497 60.87436 33374 ft 452 kts 168°
2026-04-14 11:44 39.64619 60.90330 33384 ft 454 kts 168°
2026-04-14 11:45 39.58688 60.93248 33399 ft 455 kts 167°
2026-04-14 11:45 39.52795 60.96143 33396 ft 456 kts 167°
2026-04-14 11:46 39.46869 60.99048 33393 ft 456 kts 168°
2026-04-14 11:46 39.40916 61.01960 33400 ft 457 kts 168°
2026-04-14 11:47 39.34936 61.04879 33403 ft 460 kts 168°
2026-04-14 11:47 39.29002 61.07774 33409 ft 460 kts 168°
2026-04-14 11:48 39.22983 61.10702 33400 ft 462 kts 168°
2026-04-14 11:48 39.16964 61.13627 33132 ft 461 kts 168°
2026-04-14 11:48 39.13982 61.15080 32789 ft 456 kts 168°
2026-04-14 11:49 39.11012 61.16518 32189 ft 457 kts 168°
2026-04-14 11:49 39.08053 61.17948 31621 ft 456 kts 167°
2026-04-14 11:49 39.05098 61.19378 31106 ft 455 kts 167°
2026-04-14 11:49 39.02151 61.20803 30616 ft 453 kts 167°
2026-04-14 11:50 38.99215 61.22222 30143 ft 450 kts 167°
2026-04-14 11:50 38.96292 61.23633 29697 ft 447 kts 167°
2026-04-14 11:50 38.93398 61.25028 29094 ft 448 kts 167°
2026-04-14 11:51 38.87597 61.27812 27750 ft 450 kts 166°
2026-04-14 11:51 38.84658 61.29222 27145 ft 439 kts 166°
2026-04-14 11:51 38.81840 61.30582 26529 ft 431 kts 166°
2026-04-14 11:51 38.79071 61.31912 26009 ft 419 kts 166°
2026-04-14 11:52 38.76418 61.33186 25530 ft 409 kts 166°
2026-04-14 11:52 38.73759 61.34457 25136 ft 403 kts 166°
2026-04-14 11:52 38.71151 61.35703 24776 ft 398 kts 166°
2026-04-14 11:52 38.68557 61.36943 24316 ft 395 kts 167°
2026-04-14 11:53 38.66024 61.38153 23827 ft 393 kts 166°
2026-04-14 11:53 38.63423 61.39111 23331 ft 386 kts 169°
2026-04-14 11:53 38.60917 61.40382 22899 ft 388 kts 162°
2026-04-14 11:53 38.58484 61.41797 22484 ft 382 kts 163°
2026-04-14 11:54 38.56076 61.43089 22048 ft 377 kts 165°
2026-04-14 11:54 38.53650 61.44328 21610 ft 373 kts 165°
2026-04-14 11:54 38.51240 61.45544 21160 ft 369 kts 166°
2026-04-14 11:54 38.48875 61.46729 20720 ft 365 kts 165°
2026-04-14 11:55 38.46550 61.47894 20269 ft 360 kts 165°
2026-04-14 11:55 38.44226 61.49054 19809 ft 357 kts 165°
2026-04-14 11:55 38.43684 61.49324 19706 ft 355 kts 165°
2026-04-14 11:55 38.43306 61.49512 19634 ft 355 kts 165°
2026-04-14 11:56 38.41014 61.50653 19192 ft 350 kts 165°
2026-04-14 11:56 38.38770 61.51773 18738 ft 346 kts 165°
2026-04-14 11:56 38.36550 61.52880 18267 ft 342 kts 165°
2026-04-14 11:56 38.34335 61.53982 17784 ft 338 kts 165°
2026-04-14 11:57 38.32158 61.55063 17335 ft 333 kts 165°
2026-04-14 11:57 38.30036 61.56118 16914 ft 329 kts 165°
2026-04-14 11:57 38.27925 61.57169 16478 ft 324 kts 165°
2026-04-14 11:57 38.25847 61.58202 16043 ft 320 kts 165°
2026-04-14 11:58 38.23773 61.59229 15607 ft 317 kts 164°
2026-04-14 11:58 38.21735 61.60241 15156 ft 314 kts 164°
2026-04-14 11:58 38.19714 61.61244 14714 ft 311 kts 165°
2026-04-14 11:58 38.17724 61.62228 14318 ft 306 kts 165°
2026-04-14 11:59 38.15759 61.63202 14023 ft 299 kts 165°
2026-04-14 11:59 38.13830 61.64159 13701 ft 294 kts 165°
2026-04-14 11:59 38.11951 61.65131 13403 ft 289 kts 161°
2026-04-14 11:59 38.10199 61.66314 13068 ft 287 kts 157°
2026-04-14 12:00 38.08477 61.67574 12722 ft 284 kts 157°
2026-04-14 12:00 38.06764 61.68779 12374 ft 280 kts 157°
2026-04-14 12:00 38.05050 61.69959 12005 ft 278 kts 157°
2026-04-14 12:00 38.03376 61.71108 11669 ft 274 kts 158°
2026-04-14 12:01 38.01710 61.72250 11421 ft 268 kts 157°
2026-04-14 12:01 38.00087 61.73359 11167 ft 266 kts 156°
2026-04-14 12:01 37.98444 61.74481 10887 ft 267 kts 156°
2026-04-14 12:01 37.96833 61.75579 10648 ft 263 kts 156°
2026-04-14 12:02 37.95227 61.76675 10407 ft 263 kts 156°
2026-04-14 12:02 37.93617 61.77774 10158 ft 263 kts 156°
2026-04-14 12:02 37.92009 61.78870 9912 ft 262 kts 156°
2026-04-14 12:02 37.90411 61.79958 9700 ft 257 kts 156°
2026-04-14 12:03 37.88839 61.81025 9424 ft 261 kts 156°
2026-04-14 12:03 37.87241 61.82098 9113 ft 259 kts 156°
2026-04-14 12:03 37.85657 61.83171 8842 ft 260 kts 155°
2026-04-14 12:03 37.84063 61.84253 8616 ft 258 kts 155°
2026-04-14 12:04 37.82483 61.85325 8391 ft 257 kts 154°
2026-04-14 12:04 37.80888 61.86407 8166 ft 259 kts 154°
2026-04-14 12:04 37.79319 61.87474 7949 ft 258 kts 154°
2026-04-14 12:04 37.77748 61.88539 7735 ft 256 kts 154°
2026-04-14 12:05 37.76174 61.89608 7509 ft 259 kts 154°
2026-04-14 12:05 37.74587 61.90683 7306 ft 256 kts 153°
2026-04-14 12:05 37.73007 61.91754 7092 ft 256 kts 153°
2026-04-14 12:05 37.71462 61.92801 6882 ft 253 kts 153°
2026-04-14 12:06 37.69890 61.93866 6671 ft 258 kts 153°
2026-04-14 12:06 37.68322 61.94927 6476 ft 255 kts 153°
2026-04-14 12:06 37.66737 61.95998 6269 ft 258 kts 152°
2026-04-14 12:06 37.65167 61.97060 6061 ft 259 kts 152°
2026-04-14 12:07 37.63566 61.98142 5850 ft 261 kts 153°
2026-04-14 12:07 37.61911 61.99048 5611 ft 263 kts 171°
2026-04-14 12:07 37.60089 61.99066 5457 ft 264 kts 188°
2026-04-14 12:07 37.58234 61.98857 5422 ft 263 kts 184°
2026-04-14 12:08 37.56418 61.98815 5147 ft 262 kts 181°
2026-04-14 12:08 37.54591 61.98848 4721 ft 267 kts 181°
2026-04-14 12:08 37.52707 61.98896 4313 ft 271 kts 182°
2026-04-14 12:08 37.50833 61.98949 4002 ft 271 kts 182°
2026-04-14 12:09 37.48938 61.99005 3674 ft 272 kts 183°
2026-04-14 12:09 37.47080 61.99061 3487 ft 267 kts 184°
2026-04-14 12:09 37.45226 61.99200 3255 ft 267 kts 173°
2026-04-14 12:09 37.43419 61.99289 3010 ft 254 kts 201°
2026-04-14 12:10 37.41937 61.98370 2943 ft 219 kts 235°
2026-04-14 12:10 37.41251 61.96904 2871 ft 188 kts 269°
2026-04-14 12:10 37.41255 61.95326 2755 ft 172 kts 283°
2026-04-14 12:10 37.41456 61.93816 2606 ft 173 kts 299°
2026-04-14 12:11 37.42201 61.92705 2677 ft 166 kts 323°
2026-04-14 12:11 37.43207 61.91935 2643 ft 169 kts 329°
2026-04-14 12:11 37.44202 61.91314 2726 ft 152 kts 331°
2026-04-14 12:11 37.45204 61.90921 2665 ft 149 kts 340°
2026-04-14 12:12 37.46219 61.90580 2692 ft 150 kts 340°
2026-04-14 12:12 37.47242 61.90252 2696 ft 153 kts 342°
2026-04-14 12:12 37.48309 61.90037 2716 ft 155 kts 347°
2026-04-14 12:12 37.49325 61.89975 2626 ft 138 kts 351°
2026-04-14 12:13 37.50237 61.89976 2518 ft 120 kts 350°
2026-04-14 12:13 37.51065 61.89957 2385 ft 122 kts 347°
2026-04-14 12:13 37.51916 61.89909 2328 ft 122 kts 347°
2026-04-14 12:13 37.52760 61.89886 2379 ft 118 kts 348°
2026-04-14 12:14 37.53563 61.89861 2215 ft 118 kts 348°
2026-04-14 12:14 37.54383 61.89835 1988 ft 117 kts 347°
2026-04-14 12:14 37.55186 61.89806 1810 ft 113 kts 347°
2026-04-14 12:14 37.55976 61.89790 1662 ft 112 kts 346°
2026-04-14 12:15 37.56788 61.89788 1524 ft 117 kts 347°
2026-04-14 12:15 37.57608 61.89762 1401 ft 120 kts 348°
2026-04-14 12:15 37.58436 61.89720 1258 ft 118 kts 346°
2026-04-14 12:15 37.59230 61.89687 1058 ft 112 kts 347°
2026-04-14 12:16 37.60056 61.89666 928 ft 120 kts 348°
2026-04-14 12:16 37.60903 61.89637 757 ft 119 kts 347°
2026-04-14 12:16 37.61620 61.89607 726 ft 84 kts 350°
2026-04-14 12:16 37.62110 61.89566 726 ft 60 kts
2026-04-14 12:17 37.62388 61.89574 727 ft 26 kts 358°
2026-04-14 12:17 37.62510 61.89568 727 ft 13 kts 357°
2026-04-14 12:17 37.62585 61.89569 727 ft 5 kts 17°
2026-04-14 12:17 37.62608 61.89587 727 ft 3 kts 60°
2026-04-14 12:18 37.62621 61.89623 728 ft 6 kts 76°
2026-04-14 12:18 37.62618 61.89706 729 ft 12 kts 123°